TIME,DELAY(SENSOR),PRES,T(CTD),SAL,OXYGEN,RAWTEMP,T(OPTODE),TCPHASE,TURBIDITY,TURBIDITY_GAIN,FLUOR,BETA,CDOM,ED411.5,ED443.8,ED489.6,PAR,COMP,TILT,TILTY(TILT),CHECK
1341910297,6468,255.5200042724609400,4.9137997627258300,34.9861984252929700,349.8340148925781000,761.4542846679688000,4.8853697776794430,34.1088981628418000,16,3,49,104,64,2147244941,2147556502,2147573073,2147362326,2842,0,-11,12963
1341910358,6467,252.4799957275390600,4.9133000373840330,34.9864997863769500,349.8341979980469000,761.4456176757812000,4.8856749534606930,34.1085700988769500,16,3,48,102,64,2147245777,2147558157,2147570587,2147358226,2573,0,-12,20745
1341910419,6466,249.3999938964843800,4.9131999015808105,34.9864006042480500,349.8812866210937500,761.4431762695312000,4.8857569694519040,34.1070289611816400,16,3,48,105,63,2147245338,2147556612,2147570454,2147361920,2302,0,-12,53426
1341910480,6467,246.3099975585937500,4.9128999710083010,34.9863014221191400,349.8746032714844000,761.4467163085938000,4.8856348991394040,34.1075706481933600,16,3,48,106,64,2147242431,2147562083,2147570212,2147360959,2023,0,-12,36456
1341910541,6504,243.2400054931640600,4.9124999046325680,34.9866981506347660,349.8135070800781000,761.4506835937500000,4.8854942321777340,34.1094512939453100,16,3,48,110,64,2147244429,2147555533,2147568745,2147358504,1753,0,-12,38107
1341910602,6467,240.1900024414062500,4.9127001762390140,34.9861984252929700,349.9045104980469000,761.4566040039062000,4.8852877616882320,34.1067085266113300,15,3,49,108,64,2147243835,2147562450,2147572886,2147358733,1443,0,-12,17800
1341910663,6468,237.1300048828125000,4.9127998352050780,34.9856986999511700,349.9077148437500000,761.4622802734375000,4.8850879669189450,34.1066513061523440,16,3,48,104,65,2147243638,2147558372,2147571949,2147361069,1135,0,-12,3036
1341910724,6468,234.0399932861328000,4.9121999740600590,34.9860992431640600,349.9739990234375000,761.4682006835938000,4.8848819732666020,34.1044502258300800,16,3,49,102,63,2147246897,2147560246,2147571254,2147362532,896,0,-12,13898
1341910785,6467,230.9499969482422000,4.9121999740600590,34.9860992431640600,350.0628051757812500,761.4727172851562000,4.8847241401672360,34.1017189025878900,16,3,49,103,65,2147239547,2147561659,2147570454,2147362235,571,0,-12,39253
1341910848,6468,227.7899932861328000,4.9120001792907715,34.9860000610351560,349.9655151367187500,761.4771728515625000,4.8845648765563965,34.1048011779785160,16,3,49,104,64,2147243176,2147558033,2147567217,2147361321,179,0,-12,765
1341910909,6469,224.7299957275390600,4.9116001129150390,34.9863014221191400,349.9306945800781000,761.4821777343750000,4.8843898773193360,34.1061897277832000,16,3,48,102,64,2147243377,2147558001,2147571094,2147359327,3398,0,-12,15755
1341910972,6468,221.5200042724609400,4.9116997718811035,34.9860000610351560,349.9378967285156000,761.4879760742188000,4.8841900825500490,34.1059303283691400,16,3,48,105,64,2147245677,2147560420,2147571392,2147360790,3144,0,-12,11142
1341911033,6468,218.4700012207031200,4.9113001823425290,34.9860992431640600,349.9743957519531000,761.4940795898438000,4.8839759826660160,34.1048316955566400,16,3,50,112,64,2147246564,2147559963,2147568122,2147360045,2905,0,-11,16005
1341911096,6468,215.3000030517578000,4.9113001823425290,34.9859008789062500,350.0964965820312500,761.4990844726562000,4.8837990760803220,34.1007003784179700,16,3,49,104,65,2147242747,2147560306,2147570134,2147359839,2650,0,-12,41601
1341911157,6466,212.2500000000000000,4.9109001159667970,34.9861984252929700,349.9377136230469000,761.5032958984375000,4.8836541175842285,34.1064605712890600,16,3,48,106,64,2147244680,2147558235,2147569883,2147357850,2470,0,-12,20702
1341911220,6468,209.1499938964843800,4.9110999107360840,34.9858016967773440,349.9454040527344000,761.5081787109375000,4.8834838867187500,34.1062583923339840,16,3,49,107,64,2147245292,2147558596,2147572347,2147361311,2200,0,-12,60984
1341911281,6468,206.1300048828125000,4.9102997779846190,34.9863014221191400,350.0303039550781000,761.5142211914062000,4.8832697868347170,34.1034507751464840,19,3,50,106,63,2147243067,2147557073,2147573055,2147359217,2026,0,-12,42497
1341911344,6503,203.0299987792968800,4.9106001853942870,34.9859008789062500,350.0405883789062500,761.5181274414062000,4.8831329345703125,34.1032485961914060,16,3,49,108,65,2147241403,2147555305,2147571153,2147362847,1814,0,-12,7692
1341911405,6469,200.0700073242187500,4.9105000495910645,34.9858016967773440,349.9815063476562500,761.5236206054688000,4.8829398155212400,34.1051902770996100,32,3,49,114,64,2147243469,2147560954,2147573485,2147360274,1644,0,-12,15784
1341911468,6468,197.0099945068359400,4.9095997810363770,34.9864997863769500,349.9837951660156000,761.5291748046875000,4.8827438354492190,34.1051902770996100,16,3,49,108,64,2147242893,2147559299,2147574084,2147362166,1463,0,-12,32168
1341911529,6468,194.1199951171875000,4.9095997810363770,34.9864006042480500,349.9999084472656000,761.5344848632812000,4.8825588226318360,34.1048812866210940,16,3,49,104,64,2147243935,2147558815,2147571400,2147362587,1215,0,-12,57066
1341911592,6468,191.1999969482422000,4.9102001190185550,34.9856986999511700,350.2063903808594000,761.5330200195312000,4.8826098442077640,34.0980415344238300,16,3,49,107,64,2147245352,2147560923,2147574774,2147358276,910,0,-12,43492
1341911653,6467,188.4199981689453000,4.9100999832153320,34.9858016967773440,349.9614868164062500,761.5363769531250000,4.8824939727783200,34.1063194274902340,16,3,50,108,64,2147243113,2147561133,2147572584,2147362152,607,0,-12,64833
1341911716,6468,185.5599975585937500,4.9096999168396000,34.9860000610351560,349.8511962890625000,761.5379028320312000,4.8824410438537600,34.1098289489746100,16,3,50,106,64,2147241690,2147558788,2147573087,2147364836,263,0,-12,13100
1341911777,6469,182.8000030517578000,4.9099998474121090,34.9859008789062500,349.9114074707031000,761.5394287109375000,4.8823909759521480,34.1077995300293000,16,3,48,107,64,2147243917,2147561325,2147574477,2147362019,3477,0,-12,32448
1341911840,6468,179.9400024414062500,4.9091000556945800,34.9864006042480500,349.9030151367187500,761.5454101562500000,4.8821768760681150,34.1083793640136700,16,3,50,111,64,2147243021,2147560758,2147578084,2147363071,3060,0,-12,9774
1341911901,6467,177.2299957275390600,4.9089999198913570,34.9863014221191400,349.9408874511719000,761.5516967773438000,4.8819599151611330,34.1070404052734400,16,3,50,106,64,2147244667,2147561819,2147575053,2147361270,2845,0,-12,19660
1341911964,6465,174.5000000000000000,4.9098000526428220,34.9858016967773440,349.9168090820312500,761.5424194335938000,4.8822860717773440,34.1080207824707000,16,3,50,109,63,2147242856,2147558866,2147577850,2147363040,2597,0,-12,60342
1341912025,6467,171.8699951171875000,4.9095001220703125,34.9861984252929700,349.9130859375000000,761.5402221679688000,4.8823618888854980,34.1080589294433600,10,3,50,111,64,2147245992,2147559880,2147580771,2147361074,2431,0,-12,53043
1341912088,6468,169.1699981689453000,4.9099998474121090,34.9855995178222660,349.7467956542969000,761.5363159179688000,4.8825001716613770,34.1132583618164060,16,3,50,113,64,2147242994,2147561635,2147581229,2147363757,2189,0,-12,10156
1341912149,6467,166.5599975585937500,4.9093999862670900,34.9863014221191400,349.6784973144531000,761.5401000976562000,4.8823637962341310,34.1157989501953100,16,3,48,112,64,2147246998,2147561956,2147584104,2147365238,1955,0,-12,65032
1341912212,6504,163.9499969482422000,4.9099001884460450,34.9854011535644500,349.5278015136719000,761.5451049804688000,4.8821911811828610,34.1211814880371100,16,3,48,111,64,2147244982,2147562573,2147584694,2147364250,1756,0,-12,46692
1341912273,6468,161.4400024414062500,4.9099998474121090,34.9854011535644500,349.7619934082031000,761.5438232421875000,4.8822350502014160,34.1130714416503900,16,3,50,116,65,2147246892,2147561919,2147586605,2147364877,1538,0,-12,15032
1341912336,6468,158.8399963378906200,4.9095997810363770,34.9858016967773440,349.6506042480469000,761.5446166992188000,4.8822059631347660,34.1170310974121100,16,3,50,113,64,2147247007,2147560507,2147590024,2147365855,1419,0,-12,7840
1341912397,6470,156.4100036621093800,4.9092001914978030,34.9864006042480500,349.5638122558594000,761.5405883789062000,4.8823428153991700,34.1195106506347660,16,3,48,120,64,2147244736,2147561252,2147592452,2147362994,1287,0,-12,44503
1341912460,6468,153.9600067138672000,4.9093999862670900,34.9861984252929700,349.5465087890625000,761.5368041992188000,4.8824791908264160,34.1202316284179700,16,3,50,113,64,2147244484,2147563327,2147593553,2147366243,1077,0,-12,57944
1341912521,6468,151.6300048828125000,4.9095997810363770,34.9859008789062500,349.5855102539062500,761.5374755859375000,4.8824558258056640,34.1188888549804700,11,3,50,112,64,2147243560,2147559465,2147595500,2147365796,824,0,-12,54141
1341912612,6467,147.5200042724609400,4.9105000495910645,34.9859008789062500,349.5022888183594000,761.5360717773438000,4.8825039863586430,34.1218185424804700,16,3,48,116,64,2147247633,2147561818,2147601932,2147365302,329,0,-12,36513
1341912673,6467,143.9799957275390600,4.9109997749328610,34.9858016967773440,349.2947082519531000,761.5136718750000000,4.8832869529724120,34.1282691955566400,16,3,50,120,64,2147241942,2147562226,2147599062,2147365855,3461,0,-12,25970
1341912736,6467,140.3099975585937500,4.9121999740600590,34.9856986999511700,349.1643981933594000,761.4838256835938000,4.8843350410461430,34.1319618225097660,16,3,50,120,64,2147244352,2147563487,2147603519,2147367222,3118,0,-12,29399
1341912797,6503,136.8000030517578000,4.9123997688293460,34.9856986999511700,349.1506042480469000,761.4683837890625000,4.8848757743835450,34.1320800781250000,16,3,49,123,64,2147241160,2147564379,2147607487,2147365690,2661,0,-12,48536
1341912860,6467,133.2500000000000000,4.9140000343322750,34.9850997924804700,349.1362915039062500,761.4382934570312000,4.8859272003173830,34.1320610046386700,16,3,50,116,64,2147243167,2147564429,2147607766,2147366829,2372,0,-12,14964
1341912921,6466,129.8500061035156200,4.9134998321533200,34.9856986999511700,349.1153869628906000,761.4326171875000000,4.8861308097839355,34.1327705383300800,16,3,50,119,64,2147245046,2147563976,2147612991,2147368543,2155,0,-12,30034
1341912984,6469,126.2900009155273400,4.9147000312805180,34.9850006103515600,349.1210937500000000,761.3806762695312000,4.8879427909851070,34.1315803527832000,16,3,50,123,64,2147247190,2147565786,2147619592,2147366710,1860,0,-12,6065
1341913045,6468,122.9000015258789000,4.9189000129699710,34.9847984313964840,349.0768127441406000,761.2960815429688000,4.8909091949462890,34.1313896179199200,16,3,50,122,64,2147245700,2147565471,2147622961,2147368557,1611,0,-12,17119
1341913108,6468,119.4100036621093800,4.9198999404907230,34.9847984313964840,349.2235107421875000,761.2536010742188000,4.8923931121826170,34.1253700256347660,16,3,50,125,65,2147242874,2147566038,2147629737,2147373810,1379,0,-12,32730
1341913169,6466,116.0400009155273400,4.9222002029418945,34.9850006103515600,349.2184143066406000,761.1735839843750000,4.8951950073242190,34.1238708496093750,16,3,50,135,64,2147243780,2147568479,2147638819,2147370143,1066,0,-12,40617
1341913232,6468,112.5699996948242200,4.9334998130798340,34.9842987060546900,349.0368041992187500,760.8952026367188000,4.9049401283264160,34.1247711181640600,63,3,50,121,64,2147248566,2147568008,2147644713,2147372739,781,0,-12,46577
1341913293,6468,109.1699981689453100,4.9338998794555660,34.9850006103515600,349.1603088378906000,760.8489990234375000,4.9065570831298830,34.1197090148925800,16,3,50,123,64,2147242303,2147569307,2147653001,2147374674,498,0,-12,51380
1341913356,6468,105.5899963378906200,4.9386000633239750,34.9846992492675800,349.0105895996094000,760.7570190429688000,4.9097771644592285,34.1228790283203100,16,3,50,122,64,2147240845,2147575190,2147671903,2147374806,358,0,-12,38958
1341913417,6466,102.0299987792968800,4.9408001899719240,34.9841003417968750,349.1669006347656000,760.6743164062500000,4.9126720428466800,34.1160583496093750,16,3,52,124,65,2147245604,2147575465,2147685828,2147382033,67,0,-12,29417
1341913480,6469,98.2600021362304700,4.9451999664306640,34.9842987060546900,348.9117126464844000,760.5313720703125000,4.9176731109619140,34.1219100952148440,16,3,50,122,64,2147246920,2147577727,2147707707,2147384863,3303,0,-12,13405
1341913541,6467,94.6100006103515600,4.9467000961303710,34.9846992492675800,348.9914855957031000,760.4763183593750000,4.9196028709411620,34.1180000305175800,16,3,50,127,66,2147247062,2147584489,2147737133,2147388585,2901,0,-12,55498
1341913629,6502,89.8099975585937500,4.9516000747680660,34.9849014282226560,348.9295959472656000,760.3560180664062000,4.9238147735595700,34.1176910400390600,16,3,51,124,64,2147247904,2147590120,2147776685,2147400507,2711,0,-12,1921
1341913690,6503,87.3700027465820300,4.9546999931335450,34.9849014282226560,348.8346862792969000,760.1987304687500000,4.9293160438537600,34.1177597045898440,16,3,52,125,66,2147245805,2147596749,2147817818,2147405571,2681,0,-12,36745
1341913753,6465,84.9899978637695300,4.9675002098083500,34.9851989746093750,348.7713928222656000,759.8961181640625000,4.9399027824401855,34.1139297485351560,16,3,52,127,66,2147254459,2147605371,2147858084,2147411428,2598,0,-12,20762
1341913814,6467,82.7099990844726600,4.9759998321533200,34.9851989746093750,348.5521850585937500,759.6544189453125000,4.9483637809753420,34.1164512634277340,16,3,54,126,66,2147252192,2147613133,2147887647,2147419126,2419,0,-12,26471
1341913902,6465,78.8099975585937500,5.0152001380920410,34.9852981567382800,348.2963867187500000,758.5756835937500000,4.9860901832580570,34.1038513183593750,16,3,56,133,66,2147257809,2147636255,2147988288,2147438788,2086,0,-12,25806
1341913963,6504,75.2600021362304700,5.0269999504089355,34.9855995178222660,348.2687072753906000,758.1845703125000000,4.9997649192810060,34.0971107482910160,16,3,58,133,65,2147262239,2147654074,2148057604,2147455875,1769,0,-12,35319
1341914026,6468,71.5899963378906200,5.0475001335144040,34.9860992431640600,348.1364135742187500,757.6530151367188000,5.0183491706848145,34.0912399291992200,14,3,60,135,66,2147266390,2147671327,2148134586,2147479327,1542,0,-12,63314
1341914087,6466,68.1600036621093800,5.0549998283386230,34.9861984252929700,348.1713867187500000,757.3665161132812000,5.0283617973327640,34.0841293334960940,16,3,62,134,66,2147272310,2147691593,2148207071,2147493124,1464,0,-12,45298
1341914150,6469,64.6999969482421900,5.0871000289916990,34.9864997863769500,348.2311096191406000,756.4866943359375000,5.0591049194335940,34.0649299621582000,16,3,68,136,66,2147280315,2147719514,2148297804,2147524255,1202,0,-12,59350
1341914211,6467,61.3499984741210940,5.1792998313903810,34.9887008666992200,347.6402893066406000,754.0261840820312000,5.1450209617614750,34.0364799499511700,19,3,78,145,66,2147292840,2147749123,2148411670,2147558985,1033,0,-12,63012
1341914274,6468,57.8600006103515600,5.1932001113891600,34.9910011291503900,348.0752868652344000,753.4677124023438000,5.1645112037658690,34.0108909606933600,15,3,82,153,65,2147315382,2147804882,2148606358,2147615163,470,0,-12,32667
1341914335,6468,54.4000015258789060,5.2354001998901370,34.9914016723632800,347.9956054687500000,752.2545776367188000,5.2068271636962890,33.9899711608886700,15,3,86,145,64,2147342545,2147875556,2148837768,2147683794,3526,0,-12,22486
1341914398,6467,50.8600006103515600,5.3133001327514650,34.9929008483886700,348.0927124023437500,750.2514038085938000,5.2766571044921875,33.9474182128906250,15,3,93,145,65,2147378984,2147964817,2149113713,2147775071,2949,0,-12,17172
1341914459,6467,47.5999984741210940,5.3347001075744630,34.9950981140136700,348.7525939941406000,749.4445800781250000,5.3047618865966800,33.9096984863281250,15,3,88,150,66,2147434802,2148068895,2149444571,2147886724,2405,0,-12,36486
1341914522,6468,44.3600006103515600,5.4204001426696780,34.9981002807617200,348.7893066406250000,747.2103271484375000,5.3825488090515140,33.8647117614746100,18,3,78,150,66,2147490153,2148177257,2149750079,2148010189,2136,0,-12,27275
1341914583,6468,41.4700012207031250,5.4854001998901370,35.0012016296386700,349.2986145019531000,745.3671264648438000,5.4466710090637210,33.8121185302734400,22,3,83,166,64,2147549800,2148254646,2149940291,2148109065,1570,0,-12,64952
1341914646,6467,38.5999984741210940,5.5781998634338380,35.0065002441406250,349.3705139160156000,742.5812988281250000,5.5434799194335940,33.7559890747070300,20,3,93,161,66,2147616785,2148330207,2150125311,2148224507,1500,0,-12,45209
1341914707,6469,35.9700012207031250,5.6633000373840330,35.0111007690429700,349.5231018066406000,739.9724731445312000,5.6340370178222660,33.7004814147949200,17,3,111,157,64,2147731441,2148479208,2150490975,2148416954,1324,0,-11,16036
1341914770,6470,33.1100006103515600,5.7049999237060550,35.0019989013671900,350.9652099609375000,738.3928833007812000,5.6888241767883300,33.6219100952148440,25,3,180,227,66,2147907935,2148693540,2151038088,2148703505,936,0,-12,56049
1341914831,6471,30.0100002288818360,6.2273998260498050,34.9978981018066400,351.6245117187500000,725.1680297851562000,6.1460900306701660,33.3501815795898440,55,3,413,374,65,2148302751,2149231954,2152234138,2149247917,772,0,-12,2935
1341914894,6467,26.7700004577636720,6.4300999641418460,35.0061988830566400,357.8597106933594000,718.0245971679688000,6.3920569419860840,33.0126190185546900,59,3,512,523,66,2149015789,2150182143,2154192137,2150127606,42,0,-11,61348
1341914955,6468,23.8500003814697270,7.0127000808715820,34.9998016357421900,363.3620910644531000,701.8829956054688000,6.9452648162841800,32.5421485900878900,96,3,618,630,66,2150049009,2151498312,2156649718,2151236159,301,0,-12,58412
1341915018,6470,22.0900001525878900,7.4001002311706540,35.0134010314941400,369.9522094726562500,690.5112304687500000,7.3328990936279300,32.1335105895996100,93,3,677,669,66,2151016200,2152700196,2158790514,2152204945,305,0,-11,14297
1341915103,6505,20.2900009155273440,7.5940999984741210,35.0187988281250000,376.0856018066406000,684.4998779296875000,7.5371232032775880,31.8404502868652340,90,3,699,717,66,2153062600,2155154070,2162928374,2154086738,2853,0,-12,63436
1341915194,6471,17.6599998474121100,8.3831996917724610,34.9977989196777340,375.0056152343750000,660.3463134765625000,8.3530645370483400,31.4589691162109380,522,3,706,657,64,2158545900,2161494358,2172425906,2158535451,2583,1,-12,63201
1341915255,6470,14.9300003051757810,9.4086999893188480,35.0191001892089840,371.4166870117187500,631.2586059570312000,9.3262710571289060,31.0850391387939450,93,3,709,660,65,2165114764,2168947954,2182504867,2163477764,3050,0,-11,15385
1341915334,6471,12.2700004577636720,9.8233003616333000,35.0322990417480500,373.1940002441406000,617.9699707031250000,9.7676296234130860,30.8171806335449220,147,3,652,618,63,2175423478,2180427245,2196862385,2170871236,768,1,-14,58874
1341915406,6469,9.5799999237060550,10.0160999298095700,35.0377006530761700,372.9313049316406000,610.5776977539062000,10.0122995376586910,30.7071495056152340,88,3,452,590,65,2194316255,2200723766,2219204748,2183351282,851,1,-14,33486
1341915485,6470,6.4699997901916500,11.0975999832153320,35.0406990051269500,362.3463134765625000,579.7717285156250000,11.0257301330566400,30.5460205078125000,98,3,295,508,60,2224363698,2232538390,2251499689,2204204333,846,-2,-16,31616
1341915550,6470,4.0700001716613770,11.1218996047973630,35.0499992370605500,358.6639099121094000,576.8292846679688000,11.1220197677612300,30.6142292022705080,79,3,216,547,62,2260905873,2270369631,2286637878,2234349476,371,2,-14,47605
1341915615,6469,2.0399999618530273,0.0000000000000000,0.0000000000000000,357.7770996093750000,576.0554199218750000,11.1473302841186520,30.6298809051513670,77,3,176,508,63,2311504209,2323259835,2335258747,2289391643,164,4,-9,60005
1341915653,6468,1.0000000000000000,0.0000000000000000,0.0000000000000000,357.4077148437500000,576.0020751953125000,11.1490697860717770,30.6404895782470700,209,3,171,447,62,2343979680,2365241082,2367063409,2338606203,2931,6,-8,27458
